OBJECT C

Satellite information

Favourite Embed

Satellite Type and Status

UNKNOWNIN ORBIT

Key statistics

Satellite OBJECT C at a glance.

Uptime

1578

Days in orbit

Revolutions

≈ 15.6

Per day

Orbit

SSO

Sun Synchronous Orbit

Inclination

97.3

Latest

Satellite identification and parameters

Extended collection of information and parameters for OBJECT C.

Object identification

Identified? True

Debris? False

Object name: OBJECT C

International designator: 2021-061C

Object number (NORAD): 49005

Object ID (CCSDS): 49005

Country: PEOPLES REPUBLIC OF CHINA (PRC)

Current information (Y/N): Y

RCS size: MEDIUM

Orbital parameters

Period: 92.451 minutes

Inclination: 97.3239 deg

SMA: 6772.809 km

Apoapsis: 396.434 km

Periapsis: 392.914 km

RAAN: 9.8843 deg

Eccentricy: 0.0002598

Argument of periapsis: 223.6329 deg

Mean anomaly: 136.4722 deg

Mean motion: 15.5757695 rev/day

Mean motion (dot): 0.0007652 rev/day2

B* drag term: 0.0010310095 1/REarth

Two-line elements (TLE)

Creation date: Oct. 28, 2025, 2:18 a.m.

Reference frame: TEME

Reference center: EARTH

Epoch: Oct. 27, 2025, 11:22 p.m. UTC

TLE line 0: 0 OBJECT C

TLE line 1: 1 49005U 21061C 25300.97386050 .00076520 00000-0 10310-2 0 9993

TLE line 2: 2 49005 97.3239 9.8843 0002598 223.6329 136.4722 15.57576950239915

Live tracking on map

Real-time ground track for satellite OBJECT C.

In-orbit conjunctions

There are no conjunctions computed for OBJECT C, at the moment. Check back to stay up to date, as we update our databases every day.

Go to all conjunctions

Associated space launch

Jilin-1 satellites are a series of Chinese commercial remote sensing satellite for high definition video within the Jilin-1 constellation designed and owned by the Chang Guang Satellite Technology Corporation.

OBJECT C was lifted into orbit during the mission ‘Long March 2D | Jilin-1 Wideband-01B & High Resolution 03D’, on board a Long March 2D space rocket.

The launch took place on July 3, 2021, 2:51 a.m. from Launch Complex 9.

For more information about the launch, click the button.

Launch to space Long March 2D | Jilin-1 Wideband-01B & High Resolution 03D
Long March 2D | Jilin-1 Wideband-01B & High Resolution 03D

Agency: N/A

Status: Launch Successful

Launch date: July 3, 2021, 2:51 a.m. UTC

Rocket: Long March 2D

Launch pad: Launch Complex 9

Location: Taiyuan Satellite Launch Center, People's Republic of China

...

Latest news about this satellite

News about space launch
China Launches Five Satellites on a Chang Zheng 2D

At 02:51 UTC, or 10:51 AM Beijing time on Saturday, July 3, the China Aerospace Science and Technology Corporation (CASC) successfully launched a Chang Zheng 2D rocket from LC-9 at the Taiyuan Satellite Launch Center, carrying five satellites into Sun Syn...

News about space launch
China launches five Earth observation satellites on Long March 2D rocket

China successfully launched five small remote sensing satellites on top of a Long March 2D rocket Saturday into an orbit more than 330 miles above Earth.


Newsletter sign-up

Weekly statistics, charts and insights to help you stay on top of the space industry.